Printer-friendly version
Follow the MPC on Twitter Follow the MPC on Facebook The MPC blog
Minor Planet Center

MPEC 2010-K76 : 2010 KB61

The following Minor Planet Electronic Circular may be linked-to from your own Web pages, but must not otherwise be redistributed electronically.

A form allowing access to any MPEC is at the bottom of this page.


Read MPEC 2010-K75 Read MPEC 2010-L01


M.P.E.C. 2010-K76                                Issued 2010 May 31, 01:37 UT

     The Minor Planet Electronic Circulars contain information on unusual
         minor planets and routine data on comets.  They are published
   on behalf of Commission 20 of the International Astronomical Union by the
          Minor Planet Center, Smithsonian Astrophysical Observatory,
                          Cambridge, MA 02138, U.S.A.

             Prepared using the Tamkin Foundation Computer Network

                              MPC@CFA.HARVARD.EDU
       URL http://www.minorplanetcenter.org/iau/mpc.html  ISSN 1523-6714

                                   2010 KB61

Observations:
     K10K61B* S2010 05 26.79159 11 29 19.49 +31 17 14.6          21   R EK076C51
     K10K61B  s2010 05 26.79159 1 - 4559.6459 + 3115.1628 + 4142.6605   EK076C51
     K10K61B  S2010 05 26.92389 11 28 55.52 +31 01 55.8                 EK076C51
     K10K61B  s2010 05 26.92389 1 - 4568.7360 + 3105.4992 + 4140.1240   EK076C51
     K10K61B  S2010 05 26.98998 11 28 43.73 +30 54 16.1                 EK076C51
     K10K61B  s2010 05 26.98998 1 - 4597.8410 + 3108.5900 + 4105.4021   EK076C51
     K10K61B  S2010 05 27.05607 11 28 31.78 +30 46 36.3                 EK076C51
     K10K61B  s2010 05 27.05607 1 - 4626.9458 + 3111.7127 + 4070.0096   EK076C51
     K10K61B  S2010 05 27.05619 11 28 31.71 +30 46 34.2                 EK076C51
     K10K61B  s2010 05 27.05619 1 - 4578.6124 + 3095.5543 + 4136.2838   EK076C51
     K10K61B  S2010 05 27.12228 11 28 19.86 +30 38 54.0                 EK076C51
     K10K61B  s2010 05 27.12228 1 - 4607.5849 + 3098.9349 + 4101.3826   EK076C51
     K10K61B  S2010 05 27.18837 11 28 08.05 +30 31 14.2                 EK076C51
     K10K61B  s2010 05 27.18837 1 - 4636.2124 + 3102.1485 + 4066.6659   EK076C51
     K10K61B  S2010 05 27.25446 11 27 56.24 +30 23 33.4                 EK076C51
     K10K61B  s2010 05 27.25446 1 - 4664.6508 + 3105.1758 + 4031.8430   EK076C51
     K10K61B  S2010 05 27.32068 11 27 44.51 +30 15 50.2                 EK076C51
     K10K61B  s2010 05 27.32068 1 - 4645.1862 + 3092.4774 + 4064.0295   EK076C51
     K10K61B  S2010 05 27.38676 11 27 32.83 +30 08 08.4                 EK076C51
     K10K61B  s2010 05 27.38676 1 - 4673.7845 + 3095.2490 + 4029.3020   EK076C51
     K10K61B KC2010 05 30.10735611 20 01.86 +24 49 05.0          20.9 V EK076H21
     K10K61B KC2010 05 30.12559311 19 58.84 +24 46 55.8                 EK076H21
     K10K61B KC2010 05 30.14672711 19 55.59 +24 44 24.4          20.8 V EK076H21
     K10K61B KC2010 05 30.91732 11 17 58.92 +23 13 34.3                 EK076J95
     K10K61B KC2010 05 30.92943 11 17 57.13 +23 12 08.2          20.8 R EK076J95

Observer details:
H21 Astronomical Research Observatory, Westfield.  Observer R. Holmes.
    Measurers H. Devore, R. Holmes.  0.61-m f/4.5 astrograph + CCD.
J95 Great Shefford.  Observer P. Birtwhistle.  0.40-m f/6.0 Schmidt-Cassegrain
    + CCD.
C51 WISE.  Measurers A. Mainzer, E. Wright, J. Bauer, T. Grav, J. Dailey, J.
    Masiero, R. Cutri, R. McMillan, R. Walker.
    (http://wise.ssl.berkeley.edu/mission_sci.html)

Orbital elements:
2010 KB61                                                Earth MOID = 0.0619 AU
Epoch 2010 July 23.0 TT = JDT 2455400.5                 MPC
M   2.12008              (2000.0)            P               Q
n   0.57323714     Peri.  223.05762     -0.05592826     +0.79691780
a   1.4352025      Node    54.20072     -0.58812072     +0.46053486
e   0.2977677      Incl.   47.86818     -0.80683706     -0.39093435
P   1.72           H   20.3           G   0.15           U   9
Residuals in seconds of arc
100526 C51  1.0-  0.6-    100527 C51  0.0   0.2-    100530 H21  0.0   0.5+
100526 C51  0.5-  0.4+    100527 C51  0.1+  0.5+    100530 H21  1.1-  0.6+
100526 C51  1.3+  0.4+    100527 C51  0.4-  0.5+    100530 H21  0.8+  0.8-
100527 C51  0.6+  0.7+    100527 C51  0.0   0.5-    100530 J95  0.2-  0.0
100527 C51  0.0   0.3-    100527 C51  0.2+  1.0-    100530 J95  0.6+  0.2-

Ephemeris:
2010 KB61                a,e,i = 1.44, 0.30, 48                  q = 1.0078
Date    TT    R. A. (2000) Decl.     Delta      r     Elong.  Phase     V
2010 05 24    11 38.41   +36 35.4    0.411    1.129    95.5    63.3    20.9
2010 06 03    11 10.89   +17 12.7    0.411    1.093    89.8    68.1    21.0
2010 06 13    10 53.44   -00 49.9    0.451    1.062    83.3    71.8    21.2
2010 06 23    10 41.29   -15 13.6    0.517    1.037    77.6    73.2    21.5
2010 07 03    10 31.66   -26 06.6    0.596    1.019    73.2    72.7    21.8
2010 07 13    10 23.13   -34 24.5    0.675    1.010    70.0    71.1    22.0
2010 07 23    10 14.92   -40 58.0    0.747    1.008    67.8    68.9    22.1
2010 08 02    10 06.54   -46 23.5    0.806    1.016    66.7    66.6    22.2
2010 08 12    09 57.70   -51 07.9    0.849    1.032    66.6    64.4    22.3
2010 08 22    09 47.83   -55 33.1    0.874    1.055    67.6    62.4    22.3
2010 09 01    09 35.75   -59 56.7    0.882    1.084    69.6    60.7    22.4
2010 09 11    09 18.91   -64 34.5    0.874    1.119    72.6    59.2    22.4
2010 09 21    08 50.76   -69 35.7    0.853    1.158    76.7    57.6    22.3
2010 10 01    07 53.76   -74 46.2    0.823    1.199    81.6    55.7    22.3
2010 10 11    05 46.10   -78 19.3    0.791    1.243    87.2    53.4    22.2
2010 10 21    02 55.86   -75 42.8    0.765    1.287    93.0    50.6    22.1
2010 10 31    01 25.42   -67 02.0    0.754    1.332    98.4    47.5    22.1
2010 11 10    00 48.93   -55 43.5    0.768    1.376   102.2    44.7    22.1
2010 11 20    00 34.53   -43 49.5    0.813    1.420   103.6    42.6    22.3
2010 11 30    00 30.38   -32 35.5    0.888    1.463   102.5    41.2    22.5
2010 12 10    00 31.87   -22 39.9    0.989    1.504    99.2    40.3    22.8
2010 12 20    00 36.92   -14 11.3    1.111    1.543    94.7    39.5    23.0

Carl W. Hergenrother         (C) Copyright 2010 MPC           M.P.E.C. 2010-K76

Read MPEC 2010-K75 Read MPEC 2010-L01


MPEC number:

Enter an MPEC number in one of the following forms:

  • 1997-B01 (the full form)
  • J97B01 (the packed version of the full form)
  • B01 (the abbreviated form)

Valid HTML 4.01!